User: anonymous   Login
Location: Mount Kobau Star Party
(49.1167°N, 119.7333°W)
Time: 21:51:14
(UTC-08:00)
Language:

TSX-5 - Orbit

View from above orbital plane
View from above orbital plane
View from above satellite
View from above satellite

Ground track
Ground track

The orbit data is extracted from the following two-line orbital elements,

1 26374U 00030A   18022.49087255  .00001983  00000-0  17499-3 0  9992
2 26374  68.9297  11.9047 0644585  24.8857 338.1913 14.05787756886924
Epoch (UTC): 22 January 2018 11:46:51
Eccentricity: 0.0644585
inclination: 68.9297°
perigee height: 406 km
apogee height: 1341 km
right ascension of ascending node: 11.9047°
argument of perigee: 24.8857°
revolutions per day: 14.05787756
mean anomaly at epoch: 338.1913°
orbit number at epoch: 88692

The dashed part of the orbit path shows where the satellite is in the earth's shadow,  

DLR